Tabellarische Ansicht des 2.2.2010


Die einzelnen Werte des Tages

Uhrzeit Temperatur Luftdruck Luftfeuchte Wind Hi-Wind Taupunkt THW Index Wind Chill Heat Index Solar- strahlung Regen

00:00

-3.2 C

1011.0 hpa

81 %

4.8 km/h aus 117

11.3 km/h aus WSW

-6.0 C

-5.3 C

-5.1 C

-3.4 C

0 W/m

0.00 mm

00:05

-3.2 C

1011.0 hpa

81 %

4.8 km/h aus 115

9.7 km/h aus WSW

-6.0 C

-5.3 C

-5.1 C

-3.4 C

0 W/m

0.00 mm

00:10

-3.3 C

1011.0 hpa

81 %

6.4 km/h aus 116

11.3 km/h aus WSW

-6.1 C

-6.1 C

-5.9 C

-3.4 C

0 W/m

0.00 mm

00:15

-3.3 C

1011.1 hpa

81 %

4.8 km/h aus 118

9.7 km/h aus WSW

-6.1 C

-5.4 C

-5.2 C

-3.4 C

0 W/m

0.00 mm

00:20

-3.3 C

1011.1 hpa

82 %

3.2 km/h aus 117

8.0 km/h aus WSW

-5.9 C

-4.3 C

-4.2 C

-3.4 C

0 W/m

0.00 mm

00:25

-3.3 C

1011.1 hpa

82 %

4.8 km/h aus 117

9.7 km/h aus WSW

-5.9 C

-5.4 C

-5.2 C

-3.4 C

0 W/m

0.00 mm

00:30

-3.3 C

1011.2 hpa

82 %

4.8 km/h aus 117

9.7 km/h aus WSW

-6.0 C

-5.4 C

-5.3 C

-3.5 C

0 W/m

0.00 mm

00:35

-3.3 C

1011.2 hpa

82 %

6.4 km/h aus 117

9.7 km/h aus WSW

-6.0 C

-6.2 C

-6.1 C

-3.5 C

0 W/m

0.00 mm

00:40

-3.3 C

1011.2 hpa

82 %

4.8 km/h aus 117

9.7 km/h aus WSW

-6.0 C

-5.4 C

-5.3 C

-3.5 C

0 W/m

0.00 mm

00:45

-3.4 C

1011.3 hpa

82 %

4.8 km/h aus 117

9.7 km/h aus WSW

-6.0 C

-5.5 C

-5.3 C

-3.6 C

0 W/m

0.00 mm

00:50

-3.4 C

1011.3 hpa

82 %

4.8 km/h aus 115

8.0 km/h aus WSW

-6.0 C

-5.5 C

-5.3 C

-3.6 C

0 W/m

0.00 mm

00:55

-3.4 C

1011.3 hpa

82 %

4.8 km/h aus 117

8.0 km/h aus WSW

-6.0 C

-5.5 C

-5.3 C

-3.6 C

0 W/m

0.00 mm

01:00

-3.4 C

1011.3 hpa

82 %

4.8 km/h aus 116

8.0 km/h aus WSW

-6.0 C

-5.5 C

-5.3 C

-3.6 C

0 W/m

0.00 mm

01:05

-3.4 C

1011.3 hpa

82 %

4.8 km/h aus 116

8.0 km/h aus WSW

-6.0 C

-5.5 C

-5.3 C

-3.6 C

0 W/m

0.00 mm

01:10

-3.4 C

1011.3 hpa

82 %

4.8 km/h aus 116

8.0 km/h aus WSW

-6.1 C

-5.6 C

-5.4 C

-3.6 C

0 W/m

0.00 mm

01:15

-3.4 C

1011.2 hpa

82 %

4.8 km/h aus 116

8.0 km/h aus WSW

-6.1 C

-5.6 C

-5.4 C

-3.6 C

0 W/m

0.00 mm

01:20

-3.5 C

1011.2 hpa

82 %

4.8 km/h aus 117

9.7 km/h aus WSW

-6.1 C

-5.6 C

-5.4 C

-3.7 C

0 W/m

0.00 mm

01:25

-3.6 C

1011.2 hpa

82 %

4.8 km/h aus 118

8.0 km/h aus WSW

-6.2 C

-5.7 C

-5.5 C

-3.7 C

0 W/m

0.00 mm

01:30

-3.6 C

1011.1 hpa

82 %

4.8 km/h aus 117

8.0 km/h aus WSW

-6.2 C

-5.7 C

-5.6 C

-3.8 C

0 W/m

0.00 mm

01:35

-3.6 C

1011.1 hpa

83 %

3.2 km/h aus 116

6.4 km/h aus WSW

-6.1 C

-4.7 C

-4.6 C

-3.7 C

0 W/m

0.00 mm

01:40

-3.7 C

1011.1 hpa

82 %

1.6 km/h aus 117

4.8 km/h aus WSW

-6.3 C

-3.9 C

-3.7 C

-3.9 C

0 W/m

0.00 mm

01:45

-3.8 C

1011.1 hpa

81 %

3.2 km/h aus 117

4.8 km/h aus WSW

-6.6 C

-4.9 C

-4.8 C

-4.0 C

0 W/m

0.00 mm

01:50

-3.9 C

1011.1 hpa

81 %

3.2 km/h aus 117

4.8 km/h aus WSW

-6.7 C

-5.1 C

-4.9 C

-4.1 C

0 W/m

0.00 mm

01:55

-4.1 C

1011.1 hpa

81 %

3.2 km/h aus 117

4.8 km/h aus WSW

-6.8 C

-5.2 C

-5.1 C

-4.2 C

0 W/m

0.00 mm

02:00

-4.2 C

1011.4 hpa

81 %

3.2 km/h aus 116

4.8 km/h aus WSW

-6.9 C

-5.3 C

-5.2 C

-4.3 C

0 W/m

0.00 mm

02:05

-4.3 C

1011.4 hpa

81 %

3.2 km/h aus 117

4.8 km/h aus WSW

-7.1 C

-5.5 C

-5.3 C

-4.5 C

0 W/m

0.00 mm

02:10

-4.4 C

1011.4 hpa

82 %

4.8 km/h aus 117

6.4 km/h aus WSW

-7.0 C

-6.6 C

-6.4 C

-4.6 C

0 W/m

0.00 mm

02:15

-4.6 C

1011.3 hpa

81 %

4.8 km/h aus 117

4.8 km/h aus WSW

-7.3 C

-6.8 C

-6.7 C

-4.7 C

0 W/m

0.00 mm

02:20

-4.7 C

1011.3 hpa

82 %

3.2 km/h aus 116

4.8 km/h aus WSW

-7.3 C

-5.9 C

-5.7 C

-4.8 C

0 W/m

0.00 mm

02:25

-4.8 C

1011.3 hpa

82 %

4.8 km/h aus 116

8.0 km/h aus WSW

-7.4 C

-7.1 C

-6.9 C

-4.9 C

0 W/m

0.00 mm

02:30

-4.7 C

1011.4 hpa

84 %

4.8 km/h aus 118

9.7 km/h aus WSW

-7.0 C

-6.9 C

-6.8 C

-4.8 C

0 W/m

0.00 mm

02:35

-4.5 C

1011.4 hpa

84 %

6.4 km/h aus 117

9.7 km/h aus WSW

-6.8 C

-7.5 C

-7.4 C

-4.6 C

0 W/m

0.00 mm

02:40

-4.3 C

1011.4 hpa

85 %

8.0 km/h aus 116

11.3 km/h aus SW

-6.4 C

-7.9 C

-7.8 C

-4.4 C

0 W/m

0.00 mm

02:45

-3.9 C

1011.5 hpa

85 %

9.7 km/h aus 117

16.1 km/h aus SSW

-6.1 C

-8.0 C

-7.9 C

-4.1 C

0 W/m

0.00 mm

02:50

-3.7 C

1011.5 hpa

85 %

6.4 km/h aus 117

9.7 km/h aus SSW

-5.9 C

-6.6 C

-6.5 C

-3.8 C

0 W/m

0.00 mm

02:55

-3.4 C

1011.5 hpa

85 %

9.7 km/h aus 114

20.9 km/h aus SSW

-5.6 C

-7.4 C

-7.3 C

-3.6 C

0 W/m

0.00 mm

03:00

-3.2 C

1011.4 hpa

84 %

8.0 km/h aus 117

17.7 km/h aus SSW

-5.5 C

-6.6 C

-6.5 C

-3.3 C

0 W/m

0.00 mm

03:05

-3.0 C

1011.4 hpa

84 %

11.3 km/h aus 117

20.9 km/h aus SSW

-5.3 C

-7.3 C

-7.2 C

-3.1 C

0 W/m

0.00 mm

03:10

-2.8 C

1011.4 hpa

83 %

9.7 km/h aus 116

17.7 km/h aus SSW

-5.3 C

-6.7 C

-6.6 C

-2.9 C

0 W/m

0.00 mm

03:15

-2.8 C

1011.1 hpa

82 %

6.4 km/h aus 117

14.5 km/h aus SSW

-5.4 C

-5.6 C

-5.4 C

-2.9 C

0 W/m

0.00 mm

03:20

-2.8 C

1011.1 hpa

82 %

6.4 km/h aus 117

9.7 km/h aus SSW

-5.4 C

-5.6 C

-5.4 C

-2.9 C

0 W/m

0.00 mm

03:25

-2.8 C

1011.1 hpa

82 %

8.0 km/h aus 117

16.1 km/h aus S

-5.4 C

-6.2 C

-6.0 C

-2.9 C

0 W/m

0.00 mm

03:30

-2.9 C

1011.0 hpa

82 %

9.7 km/h aus 117

16.1 km/h aus S

-5.5 C

-6.8 C

-6.7 C

-3.1 C

0 W/m

0.00 mm

03:35

-2.9 C

1011.0 hpa

82 %

9.7 km/h aus 117

16.1 km/h aus S

-5.6 C

-6.9 C

-6.7 C

-3.1 C

0 W/m

0.00 mm

03:40

-3.0 C

1011.0 hpa

82 %

9.7 km/h aus 117

17.7 km/h aus S

-5.6 C

-6.9 C

-6.8 C

-3.2 C

0 W/m

0.00 mm

03:45

-3.1 C

1011.0 hpa

82 %

9.7 km/h aus 116

14.5 km/h aus SSW

-5.7 C

-7.0 C

-6.8 C

-3.2 C

0 W/m

0.00 mm

03:50

-3.1 C

1011.0 hpa

82 %

9.7 km/h aus 117

16.1 km/h aus S

-5.7 C

-7.0 C

-6.8 C

-3.2 C

0 W/m

0.00 mm

03:55

-3.1 C

1011.0 hpa

82 %

11.3 km/h aus 115

19.3 km/h aus S

-5.7 C

-7.4 C

-7.3 C

-3.2 C

0 W/m

0.00 mm

04:00

-3.1 C

1011.0 hpa

82 %

12.9 km/h aus 117

20.9 km/h aus S

-5.7 C

-7.9 C

-7.8 C

-3.3 C

0 W/m

0.00 mm

04:05

-3.1 C

1011.0 hpa

82 %

12.9 km/h aus 117

20.9 km/h aus S

-5.7 C

-7.9 C

-7.8 C

-3.3 C

0 W/m

0.00 mm

04:10

-3.1 C

1011.0 hpa

83 %

12.9 km/h aus 117

20.9 km/h aus S

-5.6 C

-7.9 C

-7.8 C

-3.2 C

0 W/m

0.00 mm

04:15

-3.1 C

1010.8 hpa

83 %

12.9 km/h aus 116

19.3 km/h aus S

-5.6 C

-7.9 C

-7.8 C

-3.2 C

0 W/m

0.00 mm

04:20

-3.1 C

1010.8 hpa

83 %

12.9 km/h aus 117

22.5 km/h aus SSW

-5.6 C

-7.9 C

-7.8 C

-3.2 C

0 W/m

0.00 mm

04:25

-3.2 C

1010.8 hpa

83 %

14.5 km/h aus 117

20.9 km/h aus S

-5.6 C

-8.3 C

-8.2 C

-3.3 C

0 W/m

0.00 mm

04:30

-3.1 C

1010.6 hpa

83 %

12.9 km/h aus 117

19.3 km/h aus S

-5.6 C

-7.9 C

-7.8 C

-3.2 C

0 W/m

0.00 mm

04:35

-3.1 C

1010.6 hpa

83 %

14.5 km/h aus 117

20.9 km/h aus S

-5.6 C

-8.2 C

-8.1 C

-3.2 C

0 W/m

0.00 mm

04:40

-3.1 C

1010.6 hpa

83 %

17.7 km/h aus 117

22.5 km/h aus S

-5.6 C

-8.9 C

-8.8 C

-3.2 C

0 W/m

0.00 mm

04:45

-3.1 C

1010.7 hpa

83 %

16.1 km/h aus 117

19.3 km/h aus S

-5.6 C

-8.6 C

-8.4 C

-3.2 C

0 W/m

0.00 mm

04:50

-3.1 C

1010.7 hpa

83 %

16.1 km/h aus 117

24.1 km/h aus S

-5.6 C

-8.6 C

-8.4 C

-3.2 C

0 W/m

0.00 mm

04:55

-3.1 C

1010.7 hpa

84 %

16.1 km/h aus 116

22.5 km/h aus S

-5.4 C

-8.6 C

-8.4 C

-3.2 C

0 W/m

0.00 mm

05:00

-3.1 C

1010.6 hpa

84 %

17.7 km/h aus 117

24.1 km/h aus S

-5.4 C

-8.9 C

-8.8 C

-3.2 C

0 W/m

0.00 mm

05:05

-3.1 C

1010.6 hpa

84 %

16.1 km/h aus 117

29.0 km/h aus S

-5.4 C

-8.5 C

-8.4 C

-3.2 C

0 W/m

0.00 mm

05:10

-3.0 C

1010.6 hpa

84 %

16.1 km/h aus 117

24.1 km/h aus S

-5.3 C

-8.4 C

-8.3 C

-3.1 C

0 W/m

0.00 mm

05:15

-2.8 C

1010.3 hpa

85 %

17.7 km/h aus 117

27.4 km/h aus S

-5.0 C

-8.5 C

-8.4 C

-2.9 C

0 W/m

0.00 mm

05:20

-2.7 C

1010.3 hpa

85 %

17.7 km/h aus 116

24.1 km/h aus S

-4.9 C

-8.4 C

-8.3 C

-2.8 C

0 W/m

0.00 mm

05:25

-2.7 C

1010.3 hpa

84 %

17.7 km/h aus 117

22.5 km/h aus S

-5.0 C

-8.3 C

-8.2 C

-2.8 C

0 W/m

0.00 mm

05:30

-2.7 C

1010.0 hpa

84 %

16.1 km/h aus 116

20.9 km/h aus SSE

-5.0 C

-8.0 C

-7.9 C

-2.8 C

0 W/m

0.00 mm

05:35

-2.7 C

1010.0 hpa

84 %

20.9 km/h aus 117

30.6 km/h aus S

-5.0 C

-8.8 C

-8.7 C

-2.8 C

0 W/m

0.00 mm

05:40

-2.6 C

1010.0 hpa

84 %

24.1 km/h aus 117

33.8 km/h aus S

-4.9 C

-9.2 C

-9.1 C

-2.7 C

0 W/m

0.00 mm

05:45

-2.6 C

1009.9 hpa

84 %

24.1 km/h aus 118

35.4 km/h aus S

-4.9 C

-9.2 C

-9.1 C

-2.7 C

0 W/m

0.00 mm

05:50

-2.5 C

1009.9 hpa

84 %

24.1 km/h aus 116

33.8 km/h aus S

-4.8 C

-9.1 C

-9.0 C

-2.6 C

0 W/m

0.00 mm

05:55

-2.4 C

1009.9 hpa

84 %

24.1 km/h aus 117

32.2 km/h aus S

-4.8 C

-9.0 C

-8.9 C

-2.6 C

0 W/m

0.00 mm

06:00

-2.4 C

1009.7 hpa

84 %

22.5 km/h aus 117

29.0 km/h aus S

-4.8 C

-8.8 C

-8.7 C

-2.6 C

0 W/m

0.00 mm

06:05

-2.4 C

1009.7 hpa

84 %

19.3 km/h aus 117

29.0 km/h aus S

-4.7 C

-8.2 C

-8.1 C

-2.5 C

0 W/m

0.00 mm

06:10

-2.4 C

1009.7 hpa

84 %

19.3 km/h aus 117

32.2 km/h aus SSE

-4.7 C

-8.2 C

-8.1 C

-2.5 C

0 W/m

0.00 mm

06:15

-2.3 C

1009.5 hpa

84 %

20.9 km/h aus 117

30.6 km/h aus S

-4.7 C

-8.4 C

-8.3 C

-2.4 C

0 W/m

0.00 mm

06:20

-2.3 C

1009.5 hpa

84 %

22.5 km/h aus 117

38.6 km/h aus S

-4.7 C

-8.7 C

-8.6 C

-2.4 C

0 W/m

0.00 mm

06:25

-2.3 C

1009.5 hpa

84 %

25.7 km/h aus 116

37.0 km/h aus SSE

-4.7 C

-9.1 C

-9.0 C

-2.4 C

0 W/m

0.00 mm

06:30

-2.3 C

1009.2 hpa

84 %

25.7 km/h aus 116

43.5 km/h aus S

-4.6 C

-9.0 C

-8.9 C

-2.4 C

0 W/m

0.00 mm

06:35

-2.2 C

1009.2 hpa

84 %

25.7 km/h aus 116

35.4 km/h aus SSE

-4.6 C

-8.9 C

-8.8 C

-2.3 C

0 W/m

0.00 mm

06:40

-2.2 C

1009.2 hpa

83 %

20.9 km/h aus 117

30.6 km/h aus S

-4.7 C

-8.3 C

-8.2 C

-2.3 C

0 W/m

0.00 mm

06:45

-2.2 C

1009.0 hpa

84 %

25.7 km/h aus 117

33.8 km/h aus SSE

-4.6 C

-8.9 C

-8.8 C

-2.3 C

0 W/m

0.00 mm

06:50

-2.2 C

1009.0 hpa

84 %

20.9 km/h aus 118

27.4 km/h aus SSE

-4.5 C

-8.2 C

-8.1 C

-2.3 C

0 W/m

0.00 mm

06:55

-2.2 C

1009.0 hpa

84 %

16.1 km/h aus 116

22.5 km/h aus S

-4.5 C

-7.4 C

-7.3 C

-2.3 C

0 W/m

0.00 mm

07:00

-2.2 C

1008.9 hpa

84 %

14.5 km/h aus 116

20.9 km/h aus S

-4.5 C

-7.1 C

-6.9 C

-2.3 C

0 W/m

0.00 mm

07:05

-2.1 C

1008.9 hpa

84 %

16.1 km/h aus 117

27.4 km/h aus S

-4.5 C

-7.3 C

-7.2 C

-2.2 C

0 W/m

0.00 mm

07:10

-2.1 C

1008.9 hpa

85 %

14.5 km/h aus 117

24.1 km/h aus SSE

-4.2 C

-6.9 C

-6.8 C

-2.2 C

0 W/m

0.00 mm

07:15

-2.0 C

1008.4 hpa

85 %

16.1 km/h aus 117

29.0 km/h aus S

-4.2 C

-7.2 C

-7.1 C

-2.1 C

0 W/m

0.00 mm

07:20

-1.9 C

1008.4 hpa

85 %

17.7 km/h aus 116

29.0 km/h aus S

-4.1 C

-7.4 C

-7.3 C

-2.1 C

0 W/m

0.00 mm

07:25

-1.8 C

1008.4 hpa

86 %

17.7 km/h aus 117

29.0 km/h aus S

-3.8 C

-7.2 C

-7.1 C

-1.9 C

0 W/m

0.00 mm

07:30

-1.7 C

1008.2 hpa

86 %

22.5 km/h aus 117

35.4 km/h aus S

-3.7 C

-7.8 C

-7.7 C

-1.8 C

0 W/m

0.00 mm

07:35

-1.6 C

1008.2 hpa

86 %

22.5 km/h aus 116

37.0 km/h aus SSE

-3.6 C

-7.7 C

-7.6 C

-1.7 C

0 W/m

0.00 mm

07:40

-1.4 C

1008.2 hpa

86 %

22.5 km/h aus 117

35.4 km/h aus S

-3.5 C

-7.5 C

-7.4 C

-1.6 C

0 W/m

0.00 mm

07:45

-1.4 C

1008.0 hpa

87 %

22.5 km/h aus 116

33.8 km/h aus S

-3.3 C

-7.4 C

-7.3 C

-1.5 C

0 W/m

0.00 mm

07:50

-1.3 C

1008.0 hpa

87 %

19.3 km/h aus 115

35.4 km/h aus S

-3.2 C

-6.8 C

-6.7 C

-1.4 C

0 W/m

0.00 mm

07:55

-1.2 C

1008.0 hpa

87 %

22.5 km/h aus 118

33.8 km/h aus S

-3.1 C

-7.2 C

-7.1 C

-1.3 C

0 W/m

0.00 mm

08:00

-1.1 C

1007.9 hpa

87 %

20.9 km/h aus 117

35.4 km/h aus S

-3.0 C

-6.9 C

-6.8 C

-1.2 C

0 W/m

0.00 mm

08:05

-1.1 C

1007.9 hpa

87 %

19.3 km/h aus 116

30.6 km/h aus S

-2.9 C

-6.6 C

-6.4 C

-1.2 C

0 W/m

0.00 mm

08:10

-1.0 C

1007.9 hpa

87 %

22.5 km/h aus 117

33.8 km/h aus SSE

-2.9 C

-6.9 C

-6.8 C

-1.1 C

0 W/m

0.00 mm

08:15

-0.9 C

1007.5 hpa

87 %

25.7 km/h aus 117

37.0 km/h aus S

-2.8 C

-7.3 C

-7.2 C

-1.1 C

0 W/m

0.00 mm

08:20

-0.8 C

1007.5 hpa

87 %

27.4 km/h aus 116

38.6 km/h aus S

-2.7 C

-7.3 C

-7.2 C

-0.9 C

0 W/m

0.00 mm

08:25

-0.7 C

1007.5 hpa

87 %

22.5 km/h aus 117

35.4 km/h aus S

-2.6 C

-6.6 C

-6.5 C

-0.8 C

0 W/m

0.00 mm

08:30

-0.6 C

1007.3 hpa

87 %

25.7 km/h aus 117

43.5 km/h aus S

-2.5 C

-6.8 C

-6.7 C

-0.7 C

0 W/m

0.00 mm

08:35

-0.5 C

1007.3 hpa

87 %

25.7 km/h aus 117

40.2 km/h aus SSE

-2.4 C

-6.7 C

-6.6 C

-0.6 C

0 W/m

0.00 mm

08:40

-0.4 C

1007.3 hpa

87 %

24.1 km/h aus 117

38.6 km/h aus S

-2.3 C

-6.4 C

-6.3 C

-0.5 C

0 W/m

0.00 mm

08:45

-0.2 C

1006.9 hpa

87 %

25.7 km/h aus 117

43.5 km/h aus S

-2.1 C

-6.4 C

-6.3 C

-0.3 C

0 W/m

0.00 mm

08:50

-0.1 C

1006.9 hpa

86 %

32.2 km/h aus 116

48.3 km/h aus S

-2.2 C

-6.9 C

-6.8 C

-0.2 C

0 W/m

0.00 mm

08:55

-0.1 C

1006.9 hpa

86 %

24.1 km/h aus 117

35.4 km/h aus SSW

-2.1 C

-5.9 C

-5.8 C

-0.2 C

0 W/m

0.00 mm

09:00

-0.1 C

1006.7 hpa

86 %

29.0 km/h aus 118

48.3 km/h aus S

-2.1 C

-6.5 C

-6.4 C

-0.2 C

0 W/m

0.00 mm

09:05

0.0 C

1006.7 hpa

86 %

33.8 km/h aus 116

48.3 km/h aus S

-2.1 C

-6.9 C

-6.8 C

-0.1 C

0 W/m

0.00 mm

09:10

0.0 C

1006.7 hpa

86 %

33.8 km/h aus 117

48.3 km/h aus S

-2.1 C

-6.9 C

-6.8 C

-0.1 C

0 W/m

0.00 mm

09:15

-0.1 C

1006.4 hpa

86 %

30.6 km/h aus 116

43.5 km/h aus S

-2.1 C

-6.7 C

-6.6 C

-0.2 C

0 W/m

0.00 mm

09:20

0.0 C

1006.4 hpa

87 %

24.1 km/h aus 116

37.0 km/h aus SSE

-1.9 C

-5.9 C

-5.8 C

-0.1 C

0 W/m

0.00 mm

09:25

0.0 C

1006.4 hpa

87 %

32.2 km/h aus 116

51.5 km/h aus S

-1.9 C

-6.8 C

-6.7 C

-0.1 C

0 W/m

0.00 mm

09:30

0.1 C

1006.0 hpa

88 %

27.4 km/h aus 116

43.5 km/h aus SSE

-1.7 C

-6.2 C

-6.1 C

0.0 C

0 W/m

0.00 mm

09:35

0.1 C

1006.0 hpa

88 %

27.4 km/h aus 116

41.8 km/h aus S

-1.7 C

-6.2 C

-6.1 C

0.0 C

0 W/m

0.00 mm

09:40

0.1 C

1006.0 hpa

88 %

29.0 km/h aus 117

45.1 km/h aus S

-1.6 C

-6.3 C

-6.2 C

0.0 C

0 W/m

0.00 mm

09:45

0.2 C

1005.7 hpa

88 %

30.6 km/h aus 117

45.1 km/h aus S

-1.6 C

-6.4 C

-6.3 C

0.1 C

0 W/m

0.00 mm

09:50

0.2 C

1005.7 hpa

89 %

25.7 km/h aus 117

40.2 km/h aus S

-1.4 C

-5.8 C

-5.7 C

0.1 C

0 W/m

0.00 mm

09:55

0.3 C

1005.7 hpa

89 %

29.0 km/h aus 117

49.9 km/h aus S

-1.3 C

-6.1 C

-6.0 C

0.2 C

0 W/m

0.00 mm

10:00

0.3 C

1005.2 hpa

89 %

27.4 km/h aus 117

48.3 km/h aus S

-1.3 C

-5.8 C

-5.7 C

0.2 C

0 W/m

0.00 mm

10:05

0.4 C

1005.2 hpa

89 %

29.0 km/h aus 117

51.5 km/h aus SSW

-1.2 C

-5.9 C

-5.8 C

0.3 C

0 W/m

0.00 mm

10:10

0.4 C

1005.2 hpa

89 %

30.6 km/h aus 117

49.9 km/h aus S

-1.2 C

-6.1 C

-5.9 C

0.3 C

0 W/m

0.00 mm

10:15

0.4 C

1004.7 hpa

89 %

27.4 km/h aus 117

41.8 km/h aus SSE

-1.2 C

-5.7 C

-5.6 C

0.3 C

0 W/m

0.00 mm

10:20

0.6 C

1004.7 hpa

89 %

30.6 km/h aus 117

51.5 km/h aus SSE

-1.0 C

-5.9 C

-5.8 C

0.4 C

0 W/m

0.00 mm

10:25

0.6 C

1004.7 hpa

89 %

32.2 km/h aus 117

51.5 km/h aus S

-1.0 C

-6.0 C

-5.9 C

0.5 C

0 W/m

0.00 mm

10:30

0.7 C

1004.3 hpa

89 %

33.8 km/h aus 117

53.1 km/h aus S

-0.9 C

-6.1 C

-5.9 C

0.6 C

0 W/m

0.00 mm

10:35

0.7 C

1004.3 hpa

89 %

32.2 km/h aus 116

53.1 km/h aus S

-0.9 C

-5.9 C

-5.8 C

0.6 C

0 W/m

0.00 mm

10:40

0.7 C

1004.3 hpa

89 %

32.2 km/h aus 117

46.7 km/h aus S

-0.9 C

-5.8 C

-5.7 C

0.6 C

0 W/m

0.00 mm

10:45

0.7 C

1003.8 hpa

89 %

30.6 km/h aus 116

49.9 km/h aus S

-0.9 C

-5.7 C

-5.6 C

0.6 C

0 W/m

0.00 mm

10:50

0.8 C

1003.8 hpa

89 %

29.0 km/h aus 117

46.7 km/h aus S

-0.8 C

-5.4 C

-5.3 C

0.7 C

0 W/m

0.00 mm

10:55

0.8 C

1003.8 hpa

89 %

29.0 km/h aus 117

40.2 km/h aus S

-0.8 C

-5.4 C

-5.3 C

0.7 C

0 W/m

0.00 mm

11:00

0.9 C

1003.7 hpa

89 %

33.8 km/h aus 117

51.5 km/h aus S

-0.7 C

-5.8 C

-5.7 C

0.8 C

0 W/m

0.00 mm

11:05

0.9 C

1003.7 hpa

89 %

33.8 km/h aus 116

48.3 km/h aus SSE

-0.7 C

-5.7 C

-5.6 C

0.8 C

0 W/m

0.00 mm

11:10

1.0 C

1003.7 hpa

89 %

37.0 km/h aus 114

51.5 km/h aus S

-0.6 C

-5.9 C

-5.8 C

0.9 C

0 W/m

0.00 mm

11:15

1.0 C

1003.3 hpa

89 %

29.0 km/h aus 117

46.7 km/h aus S

-0.6 C

-5.2 C

-5.1 C

0.9 C

0 W/m

0.00 mm

11:20

1.0 C

1003.3 hpa

89 %

33.8 km/h aus 117

46.7 km/h aus S

-0.6 C

-5.6 C

-5.5 C

0.9 C

0 W/m

0.00 mm

11:25

1.0 C

1003.3 hpa

89 %

29.0 km/h aus 117

43.5 km/h aus S

-0.6 C

-5.2 C

-5.1 C

0.9 C

0 W/m

0.00 mm

11:30

1.0 C

1003.2 hpa

90 %

24.1 km/h aus 116

37.0 km/h aus SSE

-0.5 C

-4.6 C

-4.5 C

0.9 C

0 W/m

0.00 mm

11:35

1.0 C

1003.2 hpa

90 %

25.7 km/h aus 116

41.8 km/h aus SSW

-0.5 C

-4.8 C

-4.7 C

0.9 C

0 W/m

0.00 mm

11:40

1.1 C

1003.2 hpa

90 %

27.4 km/h aus 117

41.8 km/h aus S

-0.4 C

-4.9 C

-4.8 C

0.9 C

0 W/m

0.00 mm

11:45

1.1 C

1003.1 hpa

90 %

27.4 km/h aus 116

41.8 km/h aus SSE

-0.4 C

-4.9 C

-4.8 C

0.9 C

0 W/m

0.00 mm

11:50

1.1 C

1003.1 hpa

90 %

30.6 km/h aus 117

41.8 km/h aus S

-0.4 C

-5.2 C

-5.1 C

0.9 C

0 W/m

0.00 mm

11:55

1.1 C

1003.1 hpa

90 %

29.0 km/h aus 117

48.3 km/h aus S

-0.4 C

-5.1 C

-4.9 C

0.9 C

0 W/m

0.00 mm

12:00

1.1 C

1002.7 hpa

90 %

30.6 km/h aus 117

43.5 km/h aus S

-0.3 C

-5.2 C

-5.1 C

1.0 C

0 W/m

0.00 mm

12:05

1.1 C

1002.7 hpa

90 %

30.6 km/h aus 116

45.1 km/h aus S

-0.3 C

-5.2 C

-5.1 C

1.0 C

0 W/m

0.00 mm

12:10

1.2 C

1002.7 hpa

90 %

29.0 km/h aus 117

46.7 km/h aus SSE

-0.3 C

-4.9 C

-4.8 C

1.1 C

0 W/m

0.25 mm

12:15

1.2 C

1002.3 hpa

90 %

30.6 km/h aus 117

43.5 km/h aus S

-0.3 C

-5.1 C

-5.0 C

1.1 C

0 W/m

0.00 mm

12:20

1.2 C

1002.3 hpa

90 %

30.6 km/h aus 116

46.7 km/h aus S

-0.3 C

-5.1 C

-5.0 C

1.1 C

0 W/m

0.00 mm

12:25

1.2 C

1002.3 hpa

90 %

29.0 km/h aus 117

45.1 km/h aus S

-0.2 C

-4.9 C

-4.8 C

1.1 C

0 W/m

0.00 mm

12:30

1.2 C

1002.1 hpa

90 %

30.6 km/h aus 117

49.9 km/h aus SSE

-0.2 C

-5.0 C

-4.9 C

1.1 C

0 W/m

0.00 mm

12:35

1.3 C

1002.1 hpa

90 %

29.0 km/h aus 116

46.7 km/h aus S

-0.2 C

-4.8 C

-4.7 C

1.2 C

0 W/m

0.00 mm

12:40

1.3 C

1002.1 hpa

91 %

30.6 km/h aus 117

43.5 km/h aus S

0.0 C

-4.9 C

-4.8 C

1.2 C

0 W/m

0.00 mm

12:45

1.3 C

1001.6 hpa

90 %

27.4 km/h aus 117

43.5 km/h aus S

-0.2 C

-4.6 C

-4.5 C

1.2 C

0 W/m

0.00 mm

12:50

1.3 C

1001.6 hpa

91 %

29.0 km/h aus 116

46.7 km/h aus S

0.0 C

-4.7 C

-4.6 C

1.3 C

0 W/m

0.00 mm

12:55

1.3 C

1001.6 hpa

91 %

25.7 km/h aus 117

41.8 km/h aus S

0.0 C

-4.3 C

-4.3 C

1.3 C

0 W/m

0.00 mm

13:00

1.3 C

1001.2 hpa

91 %

25.7 km/h aus 117

38.6 km/h aus S

0.0 C

-4.3 C

-4.3 C

1.3 C

0 W/m

0.00 mm

13:05

1.3 C

1001.2 hpa

91 %

25.7 km/h aus 117

38.6 km/h aus S

0.0 C

-4.3 C

-4.3 C

1.3 C

0 W/m

0.25 mm

13:10

1.3 C

1001.2 hpa

91 %

27.4 km/h aus 117

38.6 km/h aus S

0.0 C

-4.6 C

-4.5 C

1.2 C

0 W/m

0.00 mm

13:15

1.3 C

1000.9 hpa

91 %

25.7 km/h aus 118

37.0 km/h aus SSE

0.0 C

-4.4 C

-4.3 C

1.2 C

0 W/m

0.00 mm

13:20

1.3 C

1000.9 hpa

91 %

22.5 km/h aus 117

37.0 km/h aus S

0.0 C

-3.9 C

-3.9 C

1.3 C

0 W/m

0.00 mm

13:25

1.3 C

1000.9 hpa

91 %

25.7 km/h aus 117

40.2 km/h aus S

0.0 C

-4.3 C

-4.3 C

1.3 C

0 W/m

0.00 mm

13:30

1.3 C

1000.6 hpa

91 %

25.7 km/h aus 117

37.0 km/h aus S

0.0 C

-4.3 C

-4.3 C

1.3 C

0 W/m

0.00 mm

13:35

1.3 C

1000.6 hpa

91 %

24.1 km/h aus 117

43.5 km/h aus S

0.0 C

-4.1 C

-4.1 C

1.3 C

0 W/m

0.00 mm

13:40

1.3 C

1000.6 hpa

91 %

27.4 km/h aus 114

43.5 km/h aus S

0.0 C

-4.5 C

-4.4 C

1.3 C

0 W/m

0.00 mm

13:45

1.3 C

1000.1 hpa

91 %

27.4 km/h aus 117

46.7 km/h aus S

0.0 C

-4.5 C

-4.4 C

1.3 C

0 W/m

0.00 mm

13:50

1.3 C

1000.1 hpa

91 %

29.0 km/h aus 117

41.8 km/h aus S

0.0 C

-4.7 C

-4.6 C

1.3 C

0 W/m

0.00 mm

13:55

1.3 C

1000.1 hpa

91 %

25.7 km/h aus 116

40.2 km/h aus S

0.0 C

-4.3 C

-4.3 C

1.3 C

0 W/m

0.00 mm

14:00

1.3 C

999.6 hpa

91 %

25.7 km/h aus 116

40.2 km/h aus S

0.0 C

-4.3 C

-4.3 C

1.3 C

0 W/m

0.00 mm

14:05

1.3 C

999.6 hpa

91 %

29.0 km/h aus 116

40.2 km/h aus S

0.0 C

-4.7 C

-4.6 C

1.3 C

0 W/m

0.00 mm

14:10

1.3 C

999.6 hpa

91 %

29.0 km/h aus 116

40.2 km/h aus S

0.0 C

-4.7 C

-4.6 C

1.3 C

0 W/m

0.25 mm

14:15

1.3 C

999.5 hpa

91 %

25.7 km/h aus 117

40.2 km/h aus S

0.0 C

-4.3 C

-4.3 C

1.3 C

0 W/m

0.00 mm

14:20

1.3 C

999.5 hpa

92 %

24.1 km/h aus 117

43.5 km/h aus S

0.2 C

-4.1 C

-4.1 C

1.3 C

0 W/m

0.00 mm

14:25

1.3 C

999.5 hpa

92 %

25.7 km/h aus 117

41.8 km/h aus S

0.2 C

-4.3 C

-4.3 C

1.3 C

0 W/m

0.00 mm

14:30

1.3 C

999.1 hpa

92 %

27.4 km/h aus 117

45.1 km/h aus S

0.2 C

-4.5 C

-4.4 C

1.3 C

0 W/m

0.25 mm

14:35

1.3 C

999.1 hpa

92 %

27.4 km/h aus 116

41.8 km/h aus S

0.2 C

-4.5 C

-4.4 C

1.3 C

0 W/m

0.00 mm

14:40

1.3 C

999.1 hpa

92 %

27.4 km/h aus 116

41.8 km/h aus S

0.2 C

-4.5 C

-4.4 C

1.3 C

0 W/m

0.00 mm

14:45

1.3 C

998.8 hpa

92 %

27.4 km/h aus 115

45.1 km/h aus S

0.2 C

-4.5 C

-4.4 C

1.3 C

0 W/m

0.00 mm

14:50

1.3 C

998.8 hpa

92 %

32.2 km/h aus 116

49.9 km/h aus S

0.1 C

-5.1 C

-5.0 C

1.2 C

0 W/m

0.25 mm

14:55

1.2 C

998.8 hpa

92 %

25.7 km/h aus 117

43.5 km/h aus SSW

0.1 C

-4.4 C

-4.4 C

1.2 C

0 W/m

0.00 mm

15:00

1.2 C

998.5 hpa

92 %

27.4 km/h aus 116

40.2 km/h aus S

0.1 C

-4.7 C

-4.6 C

1.2 C

0 W/m

0.00 mm

15:05

1.2 C

998.5 hpa

92 %

29.0 km/h aus 116

41.8 km/h aus S

0.1 C

-4.8 C

-4.8 C

1.2 C

0 W/m

0.25 mm

15:10

1.2 C

998.5 hpa

92 %

27.4 km/h aus 117

41.8 km/h aus SSW

0.0 C

-4.8 C

-4.7 C

1.1 C

0 W/m

0.00 mm

15:15

1.2 C

998.4 hpa

92 %

25.7 km/h aus 117

38.6 km/h aus S

0.0 C

-4.6 C

-4.5 C

1.1 C

0 W/m

0.25 mm

15:20

1.2 C

998.4 hpa

92 %

27.4 km/h aus 117

46.7 km/h aus SSW

0.0 C

-4.8 C

-4.7 C

1.1 C

0 W/m

0.00 mm

15:25

1.2 C

998.4 hpa

92 %

29.0 km/h aus 118

45.1 km/h aus S

0.1 C

-4.8 C

-4.8 C

1.2 C

0 W/m

0.00 mm

15:30

1.2 C

998.0 hpa

92 %

22.5 km/h aus 117

33.8 km/h aus S

0.1 C

-4.1 C

-4.0 C

1.2 C

0 W/m

0.25 mm

15:35

1.3 C

998.0 hpa

92 %

29.0 km/h aus 117

45.1 km/h aus SSW

0.1 C

-4.7 C

-4.7 C

1.2 C

0 W/m

0.00 mm

15:40

1.3 C

998.0 hpa

92 %

27.4 km/h aus 117

41.8 km/h aus SSW

0.2 C

-4.5 C

-4.4 C

1.3 C

0 W/m

0.00 mm

15:45

1.3 C

997.8 hpa

92 %

29.0 km/h aus 116

48.3 km/h aus S

0.2 C

-4.7 C

-4.6 C

1.3 C

0 W/m

0.00 mm

15:50

1.3 C

997.8 hpa

92 %

27.4 km/h aus 117

48.3 km/h aus SSE

0.2 C

-4.5 C

-4.4 C

1.3 C

0 W/m

0.00 mm

15:55

1.4 C

997.8 hpa

92 %

30.6 km/h aus 117

46.7 km/h aus S

0.2 C

-4.8 C

-4.7 C

1.3 C

0 W/m

0.25 mm

16:00

1.4 C

997.7 hpa

92 %

30.6 km/h aus 116

51.5 km/h aus S

0.3 C

-4.7 C

-4.6 C

1.4 C

0 W/m

0.00 mm

16:05

1.4 C

997.7 hpa

92 %

25.7 km/h aus 117

48.3 km/h aus S

0.3 C

-4.2 C

-4.1 C

1.4 C

0 W/m

0.25 mm

16:10

1.4 C

997.7 hpa

92 %

29.0 km/h aus 116

46.7 km/h aus S

0.3 C

-4.5 C

-4.4 C

1.4 C

0 W/m

0.00 mm

16:15

1.4 C

997.4 hpa

92 %

25.7 km/h aus 117

46.7 km/h aus S

0.3 C

-4.2 C

-4.1 C

1.4 C

0 W/m

0.00 mm

16:20

1.5 C

997.4 hpa

92 %

25.7 km/h aus 116

53.1 km/h aus S

0.3 C

-4.1 C

-4.1 C

1.4 C

0 W/m

0.00 mm

16:25

1.6 C

997.4 hpa

92 %

32.2 km/h aus 117

54.7 km/h aus S

0.4 C

-4.7 C

-4.6 C

1.5 C

0 W/m

0.00 mm

16:30

1.6 C

997.0 hpa

92 %

27.4 km/h aus 117

45.1 km/h aus S

0.5 C

-4.1 C

-4.1 C

1.6 C

0 W/m

0.25 mm

16:35

1.7 C

997.0 hpa

92 %

27.4 km/h aus 116

46.7 km/h aus SSW

0.5 C

-4.1 C

-4.0 C

1.6 C

0 W/m

0.00 mm

16:40

1.7 C

997.0 hpa

92 %

30.6 km/h aus 116

53.1 km/h aus SSW

0.5 C

-4.4 C

-4.3 C

1.6 C

0 W/m

0.00 mm

16:45

1.7 C

996.9 hpa

92 %

30.6 km/h aus 116

43.5 km/h aus SW

0.6 C

-4.3 C

-4.3 C

1.7 C

0 W/m

0.00 mm

16:50

1.8 C

996.9 hpa

91 %

29.0 km/h aus 116

53.1 km/h aus S

0.5 C

-4.1 C

-4.1 C

1.7 C

0 W/m

0.00 mm

16:55

1.7 C

996.9 hpa

91 %

25.7 km/h aus 116

46.7 km/h aus S

0.4 C

-3.8 C

-3.8 C

1.7 C

0 W/m

0.00 mm

17:00

1.7 C

996.6 hpa

91 %

27.4 km/h aus 117

46.7 km/h aus SSW

0.4 C

-4.0 C

-3.9 C

1.7 C

0 W/m

0.00 mm

17:05

1.7 C

996.6 hpa

91 %

25.7 km/h aus 117

40.2 km/h aus S

0.4 C

-3.8 C

-3.8 C

1.7 C

0 W/m

0.00 mm

17:10

1.7 C

996.6 hpa

91 %

27.4 km/h aus 116

43.5 km/h aus SW

0.4 C

-4.0 C

-3.9 C

1.7 C

0 W/m

0.00 mm

17:15

1.8 C

996.4 hpa

91 %

20.9 km/h aus 117

43.5 km/h aus S

0.5 C

-3.2 C

-3.1 C

1.7 C

0 W/m

0.25 mm

17:20

1.8 C

996.4 hpa

91 %

29.0 km/h aus 117

41.8 km/h aus SSW

0.5 C

-4.1 C

-4.1 C

1.7 C

0 W/m

0.00 mm

17:25

1.8 C

996.4 hpa

91 %

25.7 km/h aus 116

49.9 km/h aus SSW

0.5 C

-3.7 C

-3.7 C

1.7 C

0 W/m

0.00 mm

17:30

1.7 C

996.3 hpa

91 %

29.0 km/h aus 117

54.7 km/h aus S

0.4 C

-4.2 C

-4.1 C

1.7 C

0 W/m

0.00 mm

17:35

1.7 C

996.3 hpa

91 %

29.0 km/h aus 118

48.3 km/h aus SSW

0.4 C

-4.2 C

-4.1 C

1.7 C

0 W/m

0.00 mm

17:40

1.8 C

996.3 hpa

91 %

25.7 km/h aus 117

43.5 km/h aus S

0.5 C

-3.7 C

-3.7 C

1.7 C

0 W/m

0.00 mm

17:45

1.7 C

995.9 hpa

91 %

27.4 km/h aus 117

45.1 km/h aus SSW

0.4 C

-4.0 C

-3.9 C

1.7 C

0 W/m

0.25 mm

17:50

1.8 C

995.9 hpa

91 %

25.7 km/h aus 117

43.5 km/h aus S

0.5 C

-3.7 C

-3.7 C

1.7 C

0 W/m

0.00 mm

17:55

1.7 C

995.9 hpa

91 %

24.1 km/h aus 115

37.0 km/h aus S

0.4 C

-3.6 C

-3.6 C

1.7 C

0 W/m

0.00 mm

18:00

1.8 C

995.9 hpa

91 %

32.2 km/h aus 117

64.4 km/h aus SSW

0.5 C

-4.4 C

-4.3 C

1.7 C

0 W/m

0.00 mm

18:05

1.8 C

995.9 hpa

91 %

27.4 km/h aus 117

41.8 km/h aus SW

0.5 C

-3.9 C

-3.9 C

1.7 C

0 W/m

0.00 mm

18:10

1.8 C

995.9 hpa

91 %

25.7 km/h aus 117

38.6 km/h aus SW

0.5 C

-3.7 C

-3.7 C

1.7 C

0 W/m

0.00 mm

18:15

1.8 C

995.6 hpa

91 %

27.4 km/h aus 116

46.7 km/h aus SSW

0.5 C

-3.8 C

-3.8 C

1.8 C

0 W/m

0.00 mm

18:20

1.8 C

995.6 hpa

91 %

27.4 km/h aus 117

54.7 km/h aus S

0.5 C

-3.8 C

-3.8 C

1.8 C

0 W/m

0.00 mm

18:25

1.8 C

995.6 hpa

91 %

25.7 km/h aus 117

43.5 km/h aus SSW

0.5 C

-3.7 C

-3.6 C

1.8 C

0 W/m

0.00 mm

18:30

1.8 C

995.4 hpa

91 %

25.7 km/h aus 117

35.4 km/h aus S

0.5 C

-3.7 C

-3.7 C

1.7 C

0 W/m

0.00 mm

18:35

1.8 C

995.4 hpa

91 %

29.0 km/h aus 117

48.3 km/h aus S

0.5 C

-4.0 C

-3.9 C

1.8 C

0 W/m

0.00 mm

18:40

1.8 C

995.4 hpa

91 %

27.4 km/h aus 118

48.3 km/h aus S

0.5 C

-3.8 C

-3.8 C

1.8 C

0 W/m

0.00 mm

18:45

1.8 C

995.0 hpa

91 %

25.7 km/h aus 117

38.6 km/h aus S

0.5 C

-3.7 C

-3.6 C

1.8 C

0 W/m

0.00 mm

18:50

1.8 C

995.0 hpa

91 %

22.5 km/h aus 117

49.9 km/h aus SSW

0.5 C

-3.3 C

-3.2 C

1.8 C

0 W/m

0.00 mm

18:55

1.8 C

995.0 hpa

91 %

24.1 km/h aus 117

46.7 km/h aus S

0.5 C

-3.5 C

-3.4 C

1.8 C

0 W/m

0.00 mm

19:00

1.8 C

994.8 hpa

91 %

24.1 km/h aus 117

38.6 km/h aus SSW

0.5 C

-3.5 C

-3.4 C

1.8 C

0 W/m

0.00 mm

19:05

1.9 C

994.8 hpa

91 %

25.7 km/h aus 116

43.5 km/h aus SSW

0.6 C

-3.6 C

-3.6 C

1.8 C

0 W/m

0.00 mm

19:10

1.9 C

994.8 hpa

91 %

25.7 km/h aus 117

43.5 km/h aus SW

0.6 C

-3.6 C

-3.5 C

1.9 C

0 W/m

0.25 mm

19:15

1.9 C

994.4 hpa

91 %

20.9 km/h aus 117

35.4 km/h aus S

0.6 C

-2.9 C

-2.9 C

1.9 C

0 W/m

0.00 mm

19:20

1.9 C

994.4 hpa

91 %

24.1 km/h aus 117

45.1 km/h aus SSW

0.6 C

-3.3 C

-3.3 C

1.9 C

0 W/m

0.00 mm

19:25

2.0 C

994.4 hpa

91 %

27.4 km/h aus 117

41.8 km/h aus S

0.7 C

-3.6 C

-3.6 C

1.9 C

0 W/m

0.00 mm

19:30

1.9 C

994.3 hpa

91 %

24.1 km/h aus 117

38.6 km/h aus SW

0.6 C

-3.3 C

-3.3 C

1.9 C

0 W/m

0.00 mm

19:35

1.9 C

994.3 hpa

91 %

20.9 km/h aus 117

35.4 km/h aus SSW

0.6 C

-2.9 C

-2.9 C

1.9 C

0 W/m

0.00 mm

19:40

1.9 C

994.3 hpa

91 %

22.5 km/h aus 117

35.4 km/h aus SSW

0.6 C

-3.2 C

-3.1 C

1.9 C

0 W/m

0.00 mm

19:45

1.9 C

994.2 hpa

91 %

22.5 km/h aus 118

41.8 km/h aus SSW

0.6 C

-3.2 C

-3.1 C

1.9 C

0 W/m

0.25 mm

19:50

1.9 C

994.2 hpa

91 %

20.9 km/h aus 117

37.0 km/h aus SSW

0.6 C

-2.9 C

-2.9 C

1.9 C

0 W/m

0.00 mm

19:55

1.9 C

994.2 hpa

91 %

20.9 km/h aus 117

33.8 km/h aus S

0.6 C

-3.0 C

-2.9 C

1.8 C

0 W/m

0.25 mm

20:00

1.8 C

994.1 hpa

91 %

22.5 km/h aus 116

37.0 km/h aus SSW

0.5 C

-3.3 C

-3.2 C

1.8 C

0 W/m

0.00 mm

20:05

1.8 C

994.1 hpa

91 %

22.5 km/h aus 117

38.6 km/h aus SSW

0.5 C

-3.3 C

-3.2 C

1.8 C

0 W/m

0.00 mm

20:10

1.8 C

994.1 hpa

91 %

24.1 km/h aus 117

35.4 km/h aus SSW

0.5 C

-3.6 C

-3.5 C

1.7 C

0 W/m

0.25 mm

20:15

1.7 C

993.9 hpa

91 %

22.5 km/h aus 117

40.2 km/h aus SSW

0.4 C

-3.4 C

-3.4 C

1.7 C

0 W/m

0.00 mm

20:20

1.7 C

993.9 hpa

91 %

19.3 km/h aus 117

37.0 km/h aus SSW

0.4 C

-3.1 C

-3.0 C

1.6 C

0 W/m

0.25 mm

20:25

1.6 C

993.9 hpa

91 %

20.9 km/h aus 116

30.6 km/h aus S

0.2 C

-3.4 C

-3.4 C

1.5 C

0 W/m

0.00 mm

20:30

1.4 C

993.9 hpa

91 %

19.3 km/h aus 117

33.8 km/h aus SSW

0.1 C

-3.3 C

-3.3 C

1.4 C

0 W/m

0.25 mm

20:35

1.3 C

993.9 hpa

91 %

17.7 km/h aus 117

30.6 km/h aus SSW

0.0 C

-3.3 C

-3.2 C

1.3 C

0 W/m

0.00 mm

20:40

1.3 C

993.9 hpa

92 %

19.3 km/h aus 117

29.0 km/h aus SW

0.2 C

-3.5 C

-3.4 C

1.3 C

0 W/m

0.00 mm

20:45

1.3 C

993.8 hpa

92 %

17.7 km/h aus 116

32.2 km/h aus SSW

0.2 C

-3.3 C

-3.2 C

1.3 C

0 W/m

0.00 mm

20:50

1.3 C

993.8 hpa

92 %

16.1 km/h aus 117

27.4 km/h aus SSW

0.2 C

-3.0 C

-2.9 C

1.3 C

0 W/m

0.25 mm

20:55

1.3 C

993.8 hpa

92 %

17.7 km/h aus 117

29.0 km/h aus SSW

0.2 C

-3.3 C

-3.2 C

1.3 C

0 W/m

0.25 mm

21:00

1.3 C

993.9 hpa

92 %

17.7 km/h aus 117

29.0 km/h aus SW

0.2 C

-3.3 C

-3.2 C

1.3 C

0 W/m

0.00 mm

21:05

1.3 C

993.9 hpa

92 %

16.1 km/h aus 117

25.7 km/h aus SW

0.1 C

-3.1 C

-3.0 C

1.2 C

0 W/m

0.25 mm

21:10

1.2 C

993.9 hpa

92 %

17.7 km/h aus 116

30.6 km/h aus SSW

0.1 C

-3.4 C

-3.3 C

1.2 C

0 W/m

0.00 mm

21:15

1.2 C

993.9 hpa

92 %

14.5 km/h aus 117

29.0 km/h aus SSW

0.0 C

-3.0 C

-2.9 C

1.1 C

0 W/m

0.25 mm

21:20

1.2 C

993.9 hpa

92 %

8.0 km/h aus 117

16.1 km/h aus WSW

0.0 C

-1.5 C

-1.4 C

1.1 C

0 W/m

0.00 mm

21:25

1.1 C

993.9 hpa

92 %

8.0 km/h aus 117

17.7 km/h aus WSW

0.0 C

-1.6 C

-1.4 C

1.0 C

0 W/m

0.00 mm

21:30

1.1 C

994.2 hpa

92 %

8.0 km/h aus 117

14.5 km/h aus WSW

0.0 C

-1.6 C

-1.4 C

1.0 C

0 W/m

0.00 mm

21:35

1.1 C

994.2 hpa

92 %

9.7 km/h aus 116

17.7 km/h aus SW

0.0 C

-2.0 C

-1.9 C

1.0 C

0 W/m

0.00 mm

21:40

1.2 C

994.2 hpa

92 %

12.9 km/h aus 117

20.9 km/h aus W

0.0 C

-2.7 C

-2.6 C

1.1 C

0 W/m

0.25 mm

21:45

1.2 C

994.6 hpa

92 %

11.3 km/h aus 117

20.9 km/h aus W

0.0 C

-2.3 C

-2.2 C

1.1 C

0 W/m

0.25 mm

21:50

1.1 C

994.6 hpa

92 %

12.9 km/h aus 117

22.5 km/h aus W

-0.1 C

-2.8 C

-2.7 C

0.9 C

0 W/m

0.00 mm

21:55

1.1 C

994.6 hpa

93 %

9.7 km/h aus 118

17.7 km/h aus W

0.1 C

-2.0 C

-1.9 C

1.0 C

0 W/m

0.25 mm

22:00

1.0 C

994.7 hpa

93 %

9.7 km/h aus 117

17.7 km/h aus W

0.0 C

-2.1 C

-2.0 C

0.9 C

0 W/m

0.00 mm

22:05

0.9 C

994.7 hpa

93 %

9.7 km/h aus 117

17.7 km/h aus W

-0.1 C

-2.1 C

-2.1 C

0.9 C

0 W/m

0.00 mm

22:10

0.9 C

994.7 hpa

92 %

8.0 km/h aus 116

16.1 km/h aus W

-0.3 C

-1.8 C

-1.7 C

0.8 C

0 W/m

0.25 mm

22:15

0.8 C

994.8 hpa

93 %

11.3 km/h aus 117

17.7 km/h aus WSW

-0.2 C

-2.7 C

-2.6 C

0.8 C

0 W/m

0.00 mm

22:20

0.8 C

994.8 hpa

93 %

8.0 km/h aus 117

14.5 km/h aus WSW

-0.2 C

-1.8 C

-1.8 C

0.8 C

0 W/m

0.00 mm

22:25

0.8 C

994.8 hpa

93 %

6.4 km/h aus 116

9.7 km/h aus WSW

-0.2 C

-1.3 C

-1.3 C

0.7 C

0 W/m

0.25 mm

22:30

0.7 C

994.9 hpa

93 %

6.4 km/h aus 117

11.3 km/h aus WSW

-0.3 C

-1.4 C

-1.3 C

0.7 C

0 W/m

0.00 mm

22:35

0.7 C

994.9 hpa

93 %

6.4 km/h aus 117

11.3 km/h aus WSW

-0.3 C

-1.4 C

-1.3 C

0.7 C

0 W/m

0.00 mm

22:40

0.7 C

994.9 hpa

93 %

6.4 km/h aus 117

11.3 km/h aus WSW

-0.3 C

-1.4 C

-1.3 C

0.7 C

0 W/m

0.00 mm

22:45

0.7 C

995.4 hpa

93 %

6.4 km/h aus 117

9.7 km/h aus WSW

-0.3 C

-1.4 C

-1.4 C

0.6 C

0 W/m

0.00 mm

22:50

0.7 C

995.4 hpa

93 %

6.4 km/h aus 117

11.3 km/h aus WSW

-0.3 C

-1.4 C

-1.4 C

0.6 C

0 W/m

0.00 mm

22:55

0.7 C

995.4 hpa

93 %

6.4 km/h aus 116

14.5 km/h aus WSW

-0.3 C

-1.4 C

-1.4 C

0.6 C

0 W/m

0.00 mm

23:00

0.7 C

995.4 hpa

93 %

6.4 km/h aus 118

12.9 km/h aus WSW

-0.3 C

-1.4 C

-1.4 C

0.6 C

0 W/m

0.25 mm

23:05

0.6 C

995.4 hpa

93 %

4.8 km/h aus 117

9.7 km/h aus WSW

-0.4 C

-0.8 C

-0.8 C

0.6 C

0 W/m

0.00 mm

23:10

0.6 C

995.4 hpa

93 %

4.8 km/h aus 117

9.7 km/h aus WSW

-0.4 C

-0.8 C

-0.8 C

0.6 C

0 W/m

0.00 mm

23:15

0.6 C

995.4 hpa

93 %

3.2 km/h aus 115

4.8 km/h aus WSW

-0.4 C

0.0 C

0.1 C

0.5 C

0 W/m

0.25 mm

23:20

0.6 C

995.4 hpa

93 %

3.2 km/h aus 117

6.4 km/h aus WSW

-0.4 C

0.0 C

0.1 C

0.5 C

0 W/m

0.00 mm

23:25

0.6 C

995.4 hpa

93 %

3.2 km/h aus 116

8.0 km/h aus WSW

-0.4 C

0.0 C

0.1 C

0.5 C

0 W/m

0.00 mm

23:30

0.5 C

995.4 hpa

93 %

3.2 km/h aus 117

8.0 km/h aus WSW

-0.5 C

-0.1 C

0.0 C

0.4 C

0 W/m

0.25 mm

23:35

0.5 C

995.4 hpa

93 %

4.8 km/h aus 117

6.4 km/h aus WSW

-0.5 C

-1.0 C

-0.9 C

0.4 C

0 W/m

0.00 mm

23:40

0.4 C

995.4 hpa

93 %

4.8 km/h aus 117

8.0 km/h aus WSW

-0.6 C

-1.1 C

-1.0 C

0.4 C

0 W/m

0.00 mm

23:45

0.4 C

995.3 hpa

93 %

3.2 km/h aus 117

6.4 km/h aus WSW

-0.6 C

-0.2 C

-0.1 C

0.4 C

0 W/m

0.00 mm

23:50

0.4 C

995.3 hpa

93 %

3.2 km/h aus 116

6.4 km/h aus WSW

-0.6 C

-0.2 C

-0.1 C

0.4 C

0 W/m

0.00 mm

23:55

0.4 C

995.3 hpa

93 %

4.8 km/h aus 117

8.0 km/h aus WSW

-0.6 C

-1.1 C

-1.0 C

0.4 C

0 W/m

0.00 mm